Flag for Hungary Weather past 2 weeks in Sopron, Hungary

Now
58 °F

Overcast.


Feels Like: 56 °F
Forecast: 57 / 71 °F
Wind: 10 mph from Northwest

Location: Eisenstadt

Current Time: Sep 2, 2014 at 9:04:02 PM

Latest Report: Sep 2, 2014 at 8:00 PM


Visibility: 6 mi

Pressure: 29.99 "Hg

Humidity: 91%

Dew point: 55 °F

Location of SopronLocation

Historic Weather in Sopron — Graph

°F

Sopron temperature yesterday

Maximum temperature yesterday: 60 °F (at 12:00 AM)
Minimum temperature yesterday: 54 °F (at 6:00 AM)
Average temperature yesterday: 57 °F

Past Weeks' High & Low Weather Summary

 TemperatureHumidityPressure
High77 °F (Aug 29, 4:00 PM)97% (Aug 31, 4:00 AM)30.13 "Hg (Aug 31, 4:00 AM)
Low49 °F (Aug 25, 5:00 AM)40% (Aug 28, 3:00 PM)29.72 "Hg (Aug 27, 4:00 AM)
Average62 °F78%29.96 "Hg
* Reported Aug 18 7:00 PM — Sep 2 7:00 PM, Sopron, Weather by CustomWeather, © 2014

Note: Actual official high and low records may vary slightly from our data, if they occured in-between our weather recording intervals... More about our weather records

Advertising

Sopron weather history for previous 24 hours

 ConditionsComfort  
Time TempWeatherWind HumidityBarometerVisibility
7:00 PM
Sep 2
58 °FRain. Overcast.9 mph91%29.97 "Hg6 mi
6:00 PM58 °FFog.8 mph91%29.98 "HgN/A
5:00 PM58 °FLight rain. Overcast.9 mph90%29.97 "Hg6 mi
4:00 PM58 °FFog.9 mph91%29.97 "HgN/A
3:00 PM58 °FFog.10 mph89%29.97 "HgN/A
2:00 PM58 °FLight rain. Overcast.9 mph90%29.98 "Hg6 mi
1:00 PM58 °FFog.9 mph90%29.97 "HgN/A
12:00 PM57 °FFog.10 mph90%29.97 "HgN/A
11:00 AM57 °FLight rain. Overcast.10 mph89%29.97 "Hg6 mi
10:00 AM58 °FCool.9 mph85%29.96 "HgN/A
9:00 AM58 °FCool.12 mph80%29.93 "HgN/A
8:00 AM58 °FOvercast.12 mph80%29.93 "Hg6 mi
7:00 AM58 °FCool.12 mph81%29.93 "HgN/A
6:00 AM58 °FOvercast.12 mph79%29.91 "Hg7 mi
5:00 AM58 °FCool.12 mph80%29.93 "HgN/A
4:00 AM58 °FCool.12 mph81%29.92 "HgN/A
3:00 AM58 °FCool.10 mph84%29.93 "HgN/A
2:00 AM58 °FOvercast.8 mph84%29.95 "Hg6 mi
1:00 AM58 °FCool.5 mph87%29.97 "HgN/A
12:00 AM57 °FCool.9 mph89%29.94 "HgN/A
11:00 PM
Sep 1
57 °FRain. Overcast.10 mph91%29.94 "Hg6 mi
10:00 PM57 °FFog.10 mph91%29.95 "HgN/A
9:00 PM58 °FFog.9 mph91%29.94 "HgN/A
Weather by CustomWeather, © 2014

See weather overviewHow to use our weather pages